Home   Weather   Niterói   Past weeks

Flag for Brazil Past Weather in Niterói, Rio de Janeiro, Brazil — Yesterday and Last 2 Weeks

Now
75 °F

Passing clouds.


Feels Like: 74 °F
Forecast: 77 / 87 °F
Wind: 10 mph from North

Location: Rio De Janeiro Airport

Current Time: Dec 9, 2016 at 2:04:27 am

Latest Report: Dec 9, 2016 at 1:00 am


Visibility: N/A

Pressure: 29.80 "Hg

Humidity: 94%

Dew Point: 73 °F

Location of NiteróiLocation

Past Weather in Niterói — Graph

°F

Niterói Temperature Yesterday

Maximum temperature yesterday: 86 °F (at 1:00 pm)
Minimum temperature yesterday: 73 °F (at 5:00 am)
Average temperature yesterday: 80 °F

High & Low Weather Summary for the Past Weeks

 TemperatureHumidityPressure
High93 °F (Dec 4, 2:00 pm)94% (Nov 26, 11:00 pm)30.15 "Hg (Nov 26, 11:00 pm)
Low70 °F (Nov 30, 6:00 am)43% (Dec 6, 11:00 am)29.56 "Hg (Dec 4, 3:00 pm)
Average78 °F75%29.90 "Hg
* Reported Nov 24 6:00 am — Dec 9 1:00 am, Niterói, Weather by CustomWeather, © 2016

Note: Actual official high and low records may vary slightly from our data, if they occured in-between our weather recording intervals... More about our weather records

Advertising

Niterói Weather History for the Previous 24 Hours

Scroll right to see more
 ConditionsComfort  
Time TempWeatherWind HumidityBarometerVisibility
1:00 am
Fri, Dec 9
75 °FPassing clouds.10 mph94%29.80 "HgN/A
12:00 am75 °FLight rain. Passing clouds.10 mph94%29.83 "Hg5 mi
11:00 pm
Thu, Dec 8
77 °FPartly cloudy.12 mph89%29.80 "HgN/A
10:00 pm79 °FPartly cloudy.12 mph84%29.80 "Hg6 mi
9:00 pm79 °FThunderstorms. Fog.13 mph84%29.80 "Hg3 mi
8:00 pm79 °FThundershowers. Partly cloudy.14 mph89%N/A6 mi
7:00 pm81 °FScattered clouds.16 mph84%29.71 "HgN/A
6:00 pm84 °FPassing clouds.16 mph74%29.68 "HgN/A
5:00 pm84 °FPassing clouds.18 mph74%29.68 "HgN/A
4:00 pm86 °FPassing clouds.17 mph70%29.68 "HgN/A
3:00 pm86 °FPassing clouds.20 mph70%29.71 "HgN/A
2:00 pm86 °FSunny.16 mph70%29.74 "Hg10 mi
1:00 pm86 °FSunny.15 mph70%29.77 "Hg10 mi
12:00 pm84 °FSunny.14 mph70%29.80 "Hg10 mi
11:00 am84 °FSunny.1 mph66%29.80 "Hg10 mi
10:00 am82 °FSunny.5 mph70%29.83 "Hg10 mi
9:00 am79 °FSunny.3 mph79%29.83 "Hg10 mi
8:00 am77 °FSunny.3 mph79%29.83 "Hg10 mi
7:00 am75 °FSunny.6 mph83%29.83 "Hg10 mi
6:00 am73 °FSunny.3 mph89%29.83 "Hg10 mi
5:00 am73 °FClear.6 mph89%29.80 "Hg10 mi
4:00 am75 °FClear.3 mph78%29.80 "Hg10 mi
3:00 am75 °FClear.3 mph89%29.80 "Hg10 mi
2:00 am75 °FClear.2 mph78%29.83 "Hg10 mi
Weather by CustomWeather, © 2016

See weather overviewHow to use our weather pages